Find Starlink 37195

NORAD ID: 68662 Int'l Des: 2026-077 Owner: SPXS Country: US Constellation: starlink operational
LEOCIRCULARRETROGRADE

現在のビュー

3D地球を読み込み中...

Starlink 37195について

説明を読み込み中...

次回通過

Passes for default location (London). Set your location on the main map for personalized predictions.

高度履歴

Loading altitude history...

軌道要素

1 68662U 26077A 26146.59708545 .00027006 00000-0 83565-3 0 9997
2 68662 97.2849 18.0922 0001933 99.7746 260.3715 15.33452178 7098
Epoch: May 26, 2026 • Age: 8 hours

現在のステータス

高度 474.9 km
速度 7.64 km/s
衛星直下点 62.20°N, 12.16°W
打ち上げ日 Apr 11, 2026
運用期間 0.1 years
タイプ internet

技術仕様

分類 Payload
質量 575.00 kg
乾燥質量 530.00 kg
総質量 575.00 kg
長さ 0.30 m
直径 4.10 m
スパン 29.00 m
形状 Box + pan
製造者 SPXS
バスタイプ Starlink V2MO
フェーズステータス In Orbit
所有者/国 SPXS/US

Most Searched